Location: Caltech
(34.1382°N, 118.1253°W)
Time: 20:49:50
(UTC-07:00)

Lacrosse 5 - Visible Passes

Search period start: 16 October 2017 00:00
Search period end: 26 October 2017 00:00
Orbit: 716 x 722 km, 57.0° (Epoch: 16 October)

Date Brightness Start Highest point End Pass type
(mag) Time Alt. Az. Time Alt. Az. Time Alt. Az.
16 Oct 4.4 04:16:32 13° NNE 04:16:32 13° NNE 04:17:17 10° NNE visible
17 Oct 4.2 05:04:42 11° NNW 05:04:42 11° NNW 05:05:03 10° N visible
25 Oct 4.4 06:37:02 10° N 06:38:35 11° NNE 06:40:09 10° NE visible
